This is the latest recevied weather packets stored in our database for station/object KC2GYU. If no packets are shown the sender has not sent any weather packets the latest 10 day(s).
| Time | Temp. | Humidity | Pressure | Rain* | Wind** | Luminosity | Snow |
|---|---|---|---|---|---|---|---|
| 1777721947 | 10° C | 97% | 1013.1 hPa | 0 mm | - | 90 W/m² | - |
| 1777721645 | 10° C | 97% | 1013.3 hPa | 0 mm | - | 88 W/m² | - |
| 1777721343 | 10° C | 98% | 1013.1 hPa | 0 mm | - | 82 W/m² | - |
| 1777721040 | 9.44° C | 98% | 1013.2 hPa | 0 mm | - | 77 W/m² | - |
| 1777720737 | 9.44° C | 98% | 1013.2 hPa | 0 mm | - | 67 W/m² | - |
| 1777720434 | 8.89° C | 98% | 1013.3 hPa | 0 mm | - | 55 W/m² | - |
| 1777720132 | 8.89° C | 98% | 1013.2 hPa | 0 mm | - | 62 W/m² | - |
| 1777719830 | 8.89° C | 98% | 1013.2 hPa | 0 mm | - | 52 W/m² | - |
| 1777719527 | 8.33° C | 98% | 1013.2 hPa | 0 mm | - | 45 W/m² | - |
| 1777719224 | 8.33° C | 98% | 1013 hPa | 0 mm | - | 42 W/m² | - |
| 1777718922 | 8.33° C | 98% | 1013.2 hPa | 0 mm | - | 39 W/m² | - |
| 1777718619 | 7.78° C | 98% | 1013.1 hPa | 0 mm | - | 30 W/m² | - |
| 1777718315 | 7.78° C | 98% | 1012.9 hPa | 0 mm | - | 24 W/m² | - |
| 1777718013 | 7.78° C | 98% | 1012.8 hPa | 0 mm | - | 18 W/m² | - |
| 1777717710 | 7.78° C | 98% | 1012.8 hPa | 0 mm | - | 16 W/m² | - |
| 1777717406 | 7.78° C | 97% | 1012.9 hPa | 0 mm | - | 12 W/m² | - |
| 1777717104 | 8.33° C | 97% | 1012.8 hPa | 0 mm | - | 8 W/m² | - |
| 1777716802 | 8.33° C | 98% | 1012.6 hPa | 0 mm | - | 5 W/m² | - |
| 1777716501 | 8.33° C | 97% | 1012.2 hPa | 0 mm | - | 2 W/m² | - |
| 1777716200 | 8.33° C | 97% | 1012.6 hPa | 0 mm | - | 0 W/m² | - |
| 1777715896 | 7.78° C | 97% | 1012.5 hPa | 0 mm | - | 0 W/m² | - |
| 1777715594 | 7.78° C | 97% | 1012.7 hPa | 0 mm | - | 0 W/m² | - |
| 1777715292 | 8.33° C | 97% | 1012.8 hPa | 0 mm | - | 0 W/m² | - |
| 1777714990 | 8.33° C | 97% | 1012.6 hPa | 0 mm | - | 0 W/m² | - |
| 1777714687 | 8.33° C | 97% | 1012.7 hPa | 0 mm | - | 0 W/m² | - |
* Rain latest hour (hover to see other rain measurements)
** Current wind speed in m/s (hover to see current wind gust speed)